period_start,C,m1,H,J0,J1,J2,J3,J4,J5,JA,JB,JC,JD,JJ,JK,JN,#
2014-11-26 00:01:41,0.09,6.98,0.00,21.17,26.00,29.22,4.84,27.77,1011.71,2032.99,1536.23,1923.04,2091.99,350.36,348.50,33.24,0000 0000 0000 0000 000000
2014-11-26 00:06:42,0.05,6.99,0.00,21.17,25.99,29.23,4.75,27.77,1011.56,2032.99,1536.00,1922.99,2091.64,349.70,347.82,33.27,0000 0000 0000 0000 000000
2014-11-26 00:11:43,0.10,6.99,0.00,21.19,26.00,29.25,4.87,27.88,1011.36,2032.99,1535.68,1922.75,2091.05,349.97,347.92,33.30,0000 0000 0000 0000 000000
2014-11-26 00:16:45,0.10,6.99,0.00,21.18,26.00,29.20,4.82,27.83,1011.40,2033.00,1535.04,1922.07,2090.98,349.94,348.09,33.33,0000 0000 0000 0000 000000
2014-11-26 00:21:46,0.04,6.99,0.00,21.20,26.00,29.22,4.82,27.88,1011.27,2033.00,1534.99,1921.99,2090.52,350.61,348.69,33.36,0000 0000 0000 0000 000000
2014-11-26 00:26:47,0.13,7.00,0.00,21.23,26.00,29.24,4.79,27.90,1011.26,2033.00,1534.37,1921.74,2090.02,350.42,348.36,33.39,0000 0000 0000 0000 000000
2014-11-26 00:31:48,0.07,7.00,0.00,21.16,26.00,29.20,4.80,27.77,1011.27,2033.00,1534.00,1921.06,2089.96,349.82,347.95,33.42,0000 0000 0000 0000 000000
2014-11-26 00:36:50,0.12,7.00,0.00,20.58,26.00,29.20,4.88,27.86,1011.25,2033.00,1533.51,1921.00,2089.23,350.08,348.83,33.45,0000 0000 0000 0000 000000
2014-11-26 00:41:51,0.04,7.00,0.00,20.22,25.97,29.20,4.82,27.93,1011.25,2033.01,1533.01,1920.92,2089.00,349.84,349.16,33.48,0000 0000 0000 0000 000000
2014-11-26 00:46:52,0.14,7.01,0.00,19.99,25.94,28.92,4.87,27.79,1011.25,2033.07,1532.57,1920.39,2089.00,349.77,349.03,33.51,0000 0000 0000 0000 000000
2014-11-26 00:51:54,0.20,7.01,0.00,19.79,25.89,28.54,4.85,27.71,1011.22,2033.57,1532.02,1920.06,2088.99,350.00,349.50,33.54,0000 0000 0000 0000 000000
2014-11-26 00:56:55,0.06,7.02,0.00,19.61,25.82,28.13,4.77,27.82,1011.10,2033.96,1531.95,1920.02,2088.87,349.57,349.37,33.57,0000 0000 0000 0000 000000
2014-11-26 01:01:57,0.11,7.02,0.00,19.42,25.74,27.80,4.88,27.84,1010.85,2033.99,1531.27,1920.00,2088.32,350.04,349.92,33.60,0000 0000 0000 0000 000000
2014-11-26 01:06:58,0.03,7.02,0.00,19.25,25.64,27.63,4.92,27.94,1010.78,2034.05,1531.02,1920.00,2088.21,350.32,350.45,33.63,0000 0000 0000 0000 000000
2014-11-26 01:11:59,0.19,7.02,0.00,19.15,25.53,27.49,4.80,27.93,1010.76,2034.72,1530.99,1920.00,2088.13,350.05,350.53,33.65,0000 0000 0000 0000 000000
2014-11-26 01:17:01,0.06,7.03,0.00,19.08,25.42,27.31,4.96,27.94,1010.76,2034.98,1530.67,1920.00,2088.07,349.94,350.24,33.68,0000 0000 0000 0000 000000
2014-11-26 01:22:02,0.09,7.03,0.00,19.03,25.31,27.21,4.91,27.88,1010.78,2035.16,1530.11,1920.00,2088.23,350.00,350.36,33.71,0000 0000 0000 0000 000000
2014-11-26 01:27:03,0.15,7.04,0.00,18.98,25.19,27.19,4.87,28.01,1010.76,2035.90,1530.00,1920.00,2088.37,350.21,350.60,33.74,0000 0000 0000 0000 000000
2014-11-26 01:32:05,-0.01,7.04,0.00,18.94,25.08,27.14,4.97,28.02,1010.76,2036.01,1529.99,1920.00,2088.73,350.22,350.71,33.77,0000 0000 0000 0000 000000
2014-11-26 01:37:06,0.19,7.04,0.00,19.03,24.97,27.16,4.80,28.07,1010.76,2036.62,1529.89,1920.01,2088.88,349.37,349.74,33.80,0000 0000 0000 0000 000000
2014-11-26 01:42:08,0.08,7.04,0.00,19.45,24.87,27.16,4.92,28.11,1010.76,2036.99,1529.29,1920.01,2088.87,350.59,350.32,33.83,0000 0000 0000 0000 000000
2014-11-26 01:47:09,0.05,7.05,0.00,19.54,24.78,27.32,4.84,27.95,1010.76,2037.08,1529.03,1920.00,2088.91,350.11,349.95,33.86,0000 0000 0000 0000 000000
2014-11-26 01:52:11,0.19,7.05,0.00,19.22,24.69,27.38,4.81,28.05,1010.76,2037.77,1528.99,1920.00,2088.78,349.43,349.59,33.89,0000 0000 0000 0000 000000
2014-11-26 01:57:12,0.03,7.05,0.00,19.62,24.62,27.40,4.87,27.89,1010.76,2037.99,1528.90,1920.00,2088.62,350.19,349.73,33.92,0000 0000 0000 0000 000000
2014-11-26 02:02:13,0.11,7.06,0.00,19.93,24.56,27.40,4.79,27.98,1010.76,2038.05,1528.16,1920.00,2088.33,349.73,349.14,33.95,0000 0000 0000 0000 000000
2014-11-26 02:07:14,0.12,7.06,0.00,20.11,24.51,27.36,4.87,27.99,1010.78,2038.35,1528.01,1920.00,2088.07,350.22,349.39,33.98,0000 0000 0000 0000 000000
2014-11-26 02:12:15,0.10,7.06,0.00,20.25,24.48,27.23,4.82,27.84,1010.78,2038.89,1527.90,1919.97,2088.00,350.43,349.38,34.01,0000 0000 0000 0000 000000
2014-11-26 02:17:17,0.14,7.07,0.00,20.37,24.45,27.06,4.91,27.99,1010.77,2038.98,1527.18,1919.62,2087.99,350.21,349.02,34.04,0000 0000 0000 0000 000000
2014-11-26 02:22:18,0.06,7.07,0.00,20.48,24.45,27.01,4.76,27.88,1010.79,2038.99,1527.00,1919.06,2087.79,349.32,348.11,34.06,0000 0000 0000 0000 000000
2014-11-26 02:27:19,0.10,7.07,0.00,20.57,24.44,27.02,4.82,27.98,1010.81,2038.99,1526.64,1919.00,2087.08,350.25,348.89,34.09,0000 0000 0000 0000 000000
2014-11-26 02:32:20,0.04,7.07,0.00,20.64,24.45,27.06,4.84,27.81,1010.87,2039.00,1526.03,1918.97,2087.00,350.09,348.50,34.12,0000 0000 0000 0000 000000
2014-11-26 02:37:22,0.12,7.08,0.00,20.74,24.46,27.10,4.78,27.97,1010.87,2039.01,1525.89,1918.33,2086.78,350.03,348.33,34.15,0000 0000 0000 0000 000000
2014-11-26 02:42:23,0.12,7.08,0.00,20.82,24.48,27.15,4.82,27.93,1010.87,2039.00,1525.13,1918.01,2086.07,349.91,348.20,34.18,0000 0000 0000 0000 000000
2014-11-26 02:47:25,0.01,7.08,0.00,20.88,24.51,27.20,4.80,27.76,1010.93,2039.00,1525.00,1917.92,2085.98,350.71,348.94,34.21,0000 0000 0000 0000 000000
2014-11-26 02:52:26,0.13,7.08,0.00,20.95,24.55,27.25,4.83,27.93,1011.21,2039.00,1524.97,1917.22,2085.33,349.89,348.14,34.24,0000 0000 0000 0000 000000
2014-11-26 02:57:27,0.10,7.09,0.00,21.00,24.59,27.32,4.81,27.92,1011.14,2038.98,1524.22,1916.99,2084.98,350.19,348.16,34.27,0000 0000 0000 0000 000000
2014-11-26 03:02:28,0.19,7.09,0.00,21.09,24.63,27.37,4.81,27.79,1011.15,2038.95,1523.68,1916.36,2084.26,349.91,348.01,34.30,0000 0000 0000 0000 000000
2014-11-26 03:07:29,0.02,7.09,0.00,21.10,24.68,27.43,4.78,27.88,1010.93,2038.78,1523.01,1915.99,2083.99,350.33,348.20,34.33,0000 0000 0000 0000 000000
2014-11-26 03:12:30,0.07,7.09,0.00,21.14,24.73,27.50,4.77,27.73,1011.15,2038.41,1522.62,1915.62,2083.45,350.65,348.53,34.36,0000 0000 0000 0000 000000
2014-11-26 03:17:32,0.02,7.10,0.00,21.17,24.77,27.57,4.76,27.82,1011.17,2038.09,1522.07,1915.03,2082.99,349.99,347.96,34.39,0000 0000 0000 0000 000000
2014-11-26 03:22:33,0.19,7.10,0.00,21.20,24.83,27.62,4.80,27.78,1011.16,2038.00,1521.56,1914.61,2082.37,349.90,347.70,34.42,0000 0000 0000 0000 000000
2014-11-26 03:27:34,0.05,7.10,0.00,21.25,24.88,27.68,4.81,27.73,1010.89,2038.00,1521.00,1914.01,2082.00,350.28,347.98,34.45,0000 0000 0000 0000 000000
2014-11-26 03:32:36,0.17,7.11,0.00,21.27,24.93,27.76,4.76,27.64,1010.91,2037.98,1520.49,1913.70,2081.29,350.07,347.83,34.48,0000 0000 0000 0000 000000
2014-11-26 03:37:37,-0.04,7.11,0.00,21.29,24.98,27.80,4.84,27.86,1011.02,2037.70,1520.01,1913.03,2080.98,349.65,347.41,34.50,0000 0000 0000 0000 000000
2014-11-26 03:42:38,0.06,7.11,0.00,21.33,25.02,27.87,4.79,27.83,1011.10,2037.30,1519.71,1912.92,2080.31,349.86,347.52,34.53,0000 0000 0000 0000 000000
2014-11-26 03:47:39,0.08,7.11,0.00,21.36,25.08,27.91,4.72,27.76,1011.20,2037.05,1519.06,1912.17,2079.98,349.21,346.95,34.56,0000 0000 0000 0000 000000
2014-11-26 03:52:41,0.12,7.11,0.00,21.37,25.13,27.96,4.84,27.77,1011.23,2037.00,1518.67,1911.97,2079.20,350.38,348.38,34.59,0000 0000 0000 0000 000000
2014-11-26 03:57:42,0.12,7.12,0.00,21.36,25.18,28.01,4.78,27.69,1011.24,2036.98,1518.02,1911.20,2078.87,350.37,348.15,34.62,0000 0000 0000 0000 000000
2014-11-26 04:02:44,0.11,7.12,0.00,21.39,25.22,28.05,4.83,27.67,1011.25,2036.86,1517.58,1910.92,2078.08,350.81,348.38,34.65,0000 0000 0000 0000 000000
2014-11-26 04:07:45,-0.01,7.12,0.00,21.42,25.27,28.11,4.81,27.80,1011.29,2036.19,1516.89,1910.10,2077.57,349.97,347.69,34.68,0000 0000 0000 0000 000000
2014-11-26 04:12:46,0.15,7.13,0.00,21.43,25.32,28.16,4.75,27.78,1011.27,2036.02,1516.10,1909.67,2077.01,350.04,347.84,34.71,0000 0000 0000 0000 000000
2014-11-26 04:17:47,0.12,7.13,0.00,21.45,25.36,28.20,4.83,27.69,1011.27,2036.00,1515.78,1909.04,2076.45,350.57,348.07,34.74,0000 0000 0000 0000 000000
2014-11-26 04:22:48,0.09,7.13,0.00,21.52,25.41,28.26,4.90,27.75,1011.26,2035.99,1515.06,1908.82,2075.99,350.34,347.68,34.77,0000 0000 0000 0000 000000
2014-11-26 04:27:50,0.11,7.14,0.00,21.57,25.45,28.30,4.80,27.70,1011.33,2035.95,1515.00,1908.09,2075.32,350.33,347.84,34.80,0000 0000 0000 0000 000000
2014-11-26 04:32:51,-0.12,7.14,0.00,21.60,25.50,28.32,4.76,27.76,1011.53,2035.49,1515.00,1907.98,2074.89,349.72,347.39,34.83,0000 0000 0000 0000 000000
2014-11-26 04:37:52,0.16,7.14,0.00,21.59,25.54,28.37,4.83,27.80,1011.44,2035.07,1514.37,1907.31,2074.10,350.07,347.60,34.86,0000 0000 0000 0000 000000
2014-11-26 04:42:53,0.03,7.14,0.00,21.65,25.58,28.42,4.81,27.81,1011.71,2035.00,1513.96,1906.99,2073.79,350.10,347.66,34.88,0000 0000 0000 0000 000000
2014-11-26 04:47:54,0.22,7.14,0.00,21.68,25.62,28.44,4.78,27.72,1011.73,2034.99,1513.15,1906.29,2073.05,349.58,347.14,34.91,0000 0000 0000 0000 000000
2014-11-26 04:52:56,0.03,7.15,0.00,21.73,25.66,28.46,4.73,27.68,1011.73,2034.94,1512.86,1905.99,2072.80,349.61,347.02,34.94,0000 0000 0000 0000 000000
2014-11-26 04:57:57,0.11,6.91,0.00,21.77,25.70,28.52,4.25,24.98,1011.73,2034.73,1578.68,1953.32,2123.85,309.89,307.47,0.00,0000 0000 0000 0000 000002
2014-11-26 05:02:58,0.12,0.00,0.00,21.80,25.74,28.54,4.81,26.22,1011.74,2038.93,3505.90,3341.83,3625.55,349.82,347.25,0.00,0000 0000 0000 0000 000000
2014-11-26 05:07:59,0.11,0.00,0.00,21.80,25.78,28.59,4.86,26.37,1011.77,2038.39,3502.31,3340.19,3623.32,350.41,347.75,0.03,0000 0000 0000 0000 000000
2014-11-26 05:13:01,0.10,0.00,0.00,21.81,25.82,28.61,4.84,26.33,1011.77,2038.05,3500.29,3338.83,3621.50,350.18,347.53,0.06,0000 0000 0000 0000 000000
2014-11-26 05:18:02,0.12,0.00,0.00,21.86,25.86,28.66,4.88,26.36,1011.82,2038.00,3498.38,3337.63,3619.93,350.39,347.85,0.09,0000 0000 0000 0000 000000
2014-11-26 05:23:03,0.13,0.01,0.00,21.90,25.89,28.71,4.77,26.35,1011.88,2038.00,3496.38,3336.36,3618.44,350.51,347.84,0.12,0000 0000 0000 0000 000000
2014-11-26 05:28:04,0.12,0.01,0.00,21.92,25.93,28.74,4.78,26.30,1012.08,2037.97,3494.69,3335.14,3616.99,350.73,348.08,0.15,0000 0000 0000 0000 000000
2014-11-26 05:33:06,0.11,0.01,0.00,21.95,25.97,28.80,4.79,26.42,1012.02,2037.85,3492.94,3333.97,3615.65,350.07,347.47,0.18,0000 0000 0000 0000 000000
2014-11-26 05:38:07,0.06,0.02,0.00,21.95,26.00,28.81,4.76,26.48,1011.87,2037.40,3491.01,3332.67,3614.13,350.07,347.28,0.21,0000 0000 0000 0000 000000
2014-11-26 05:43:08,0.11,0.02,0.00,21.95,26.04,28.85,4.73,26.43,1012.06,2037.07,3489.02,3331.36,3612.58,350.21,347.64,0.24,0000 0000 0000 0000 000000
2014-11-26 05:48:09,0.10,0.02,0.00,22.00,26.07,28.86,4.74,26.34,1012.18,2037.02,3487.55,3330.29,3611.44,350.06,347.29,0.27,0000 0000 0000 0000 000000
2014-11-26 05:53:10,0.11,0.03,0.00,22.03,26.11,28.92,4.72,26.48,1012.20,2037.00,3486.01,3329.11,3610.02,349.36,346.90,0.30,0000 0000 0000 0000 000000
2014-11-26 05:58:11,0.12,0.03,0.00,22.01,26.14,28.96,4.84,26.41,1012.23,2036.99,3484.57,3327.98,3608.73,350.13,347.57,0.33,0000 0000 0000 0000 000000
2014-11-26 06:03:13,0.09,0.03,0.00,22.04,26.18,29.00,4.80,26.33,1012.23,2036.97,3483.29,3327.04,3607.52,350.78,347.71,0.36,0000 0000 0000 0000 000000
2014-11-26 06:08:14,0.06,0.03,0.00,22.05,26.21,29.04,4.82,26.39,1012.25,2036.77,3481.95,3326.14,3606.34,350.40,347.43,0.39,0000 0000 0000 0000 000000
2014-11-26 06:13:15,0.02,0.04,0.00,22.06,26.24,29.10,4.75,26.32,1012.24,2036.22,3480.61,3325.16,3605.24,349.18,346.61,0.41,0000 0000 0000 0000 000000
2014-11-26 06:18:17,0.07,0.04,0.00,22.05,26.27,29.13,4.80,26.32,1012.50,2036.03,3479.44,3324.22,3604.15,350.26,347.57,0.44,0000 0000 0000 0000 000000
2014-11-26 06:23:18,0.09,0.04,0.00,22.05,26.30,29.16,4.79,26.32,1012.71,2036.01,3478.09,3323.37,3603.16,349.59,346.97,0.47,0000 0000 0000 0000 000000
2014-11-26 06:28:19,0.10,0.04,0.00,22.04,26.33,29.23,4.83,26.36,1012.70,2036.00,3476.81,3322.45,3602.09,350.45,347.95,0.50,0000 0000 0000 0000 000000
2014-11-26 06:33:21,0.10,0.04,0.00,22.04,26.35,29.28,4.78,26.24,1012.71,2036.00,3475.55,3321.55,3601.03,349.88,347.49,0.53,0000 0000 0000 0000 000000
2014-11-26 06:38:22,0.10,0.05,0.00,22.06,26.38,29.32,4.84,26.48,1012.72,2035.98,3474.02,3320.57,3600.04,349.90,347.39,0.56,0000 0000 0000 0000 000000
2014-11-26 06:43:24,0.08,0.05,0.00,22.04,26.40,29.35,4.78,26.36,1012.77,2035.95,3472.75,3319.68,3598.93,350.34,347.89,0.59,0000 0000 0000 0000 000000
2014-11-26 06:48:25,0.06,0.05,0.00,22.08,26.42,29.42,4.84,26.40,1013.12,2035.83,3471.56,3318.80,3597.96,350.18,347.75,0.62,0000 0000 0000 0000 000000
2014-11-26 06:53:26,0.02,0.05,0.00,22.08,26.45,29.49,4.79,26.30,1013.20,2035.42,3470.36,3317.87,3596.93,349.77,347.35,0.65,0000 0000 0000 0000 000000
2014-11-26 06:58:27,0.04,0.06,0.00,22.08,26.47,29.52,4.81,26.39,1013.21,2035.13,3469.09,3316.99,3595.97,350.26,347.83,0.68,0000 0000 0000 0000 000000
2014-11-26 07:03:28,0.09,0.06,0.00,22.08,26.50,29.56,4.80,26.38,1013.52,2035.03,3467.85,3316.11,3594.95,349.97,347.87,0.71,0000 0000 0000 0000 000000
2014-11-26 07:08:30,0.09,0.06,0.00,22.11,26.51,29.61,4.79,26.36,1013.66,2035.02,3466.59,3315.23,3594.01,350.09,347.78,0.74,0000 0000 0000 0000 000000
2014-11-26 07:13:31,0.09,0.06,0.00,22.10,26.53,29.62,4.80,26.41,1013.69,2035.00,3465.33,3314.35,3593.07,349.74,347.49,0.77,0000 0000 0000 0000 000000
2014-11-26 07:18:32,0.08,0.07,0.00,22.10,26.55,29.64,4.79,26.32,1013.69,2035.00,3464.23,3313.55,3592.09,350.28,348.01,0.80,0000 0000 0000 0000 000000
2014-11-26 07:23:33,0.08,0.07,0.00,22.11,26.57,29.68,4.78,26.44,1013.70,2035.00,3462.92,3312.75,3591.10,349.87,347.68,0.82,0000 0000 0000 0000 000000
2014-11-26 07:28:34,0.08,0.07,0.00,22.09,26.58,29.69,4.82,26.44,1013.72,2035.00,3461.75,3311.97,3590.39,350.27,348.08,0.85,0000 0000 0000 0000 000000
2014-11-26 07:33:36,0.09,0.07,0.00,22.11,26.60,29.70,4.80,26.43,1013.71,2035.00,3460.57,3311.10,3589.60,349.71,347.40,0.88,0000 0000 0000 0000 000000
2014-11-26 07:38:37,0.09,0.08,0.00,22.11,26.61,29.72,4.85,26.47,1013.70,2034.99,3459.21,3310.19,3588.58,350.47,348.15,0.91,0000 0000 0000 0000 000000
2014-11-26 07:43:39,0.10,0.08,0.00,22.13,26.62,29.74,4.80,26.40,1013.77,2034.98,3457.89,3309.21,3587.55,349.96,347.69,0.94,0000 0000 0000 0000 000000
2014-11-26 07:48:40,0.10,0.08,0.00,22.13,26.64,29.74,4.79,26.39,1014.14,2034.96,3456.61,3308.37,3586.54,349.84,347.66,0.97,0000 0000 0000 0000 000000
2014-11-26 07:53:41,0.09,0.08,0.00,22.14,26.65,29.80,4.77,26.29,1014.17,2034.94,3455.39,3307.42,3585.47,349.39,347.21,1.00,0000 0000 0000 0000 000000
2014-11-26 07:58:43,0.08,0.09,0.00,22.13,26.66,29.81,4.77,26.36,1014.17,2034.85,3454.25,3306.57,3584.48,349.69,347.60,1.03,0000 0000 0000 0000 000000
2014-11-26 08:03:44,0.06,0.09,0.00,22.15,26.67,29.85,4.78,26.43,1014.17,2034.69,3452.96,3305.70,3583.53,349.65,347.60,1.06,0000 0000 0000 0000 000000
2014-11-26 08:08:45,0.01,0.09,0.00,22.16,26.68,29.82,4.82,26.44,1014.18,2034.17,3451.67,3304.76,3582.61,349.88,347.88,1.09,0000 0000 0000 0000 000000
2014-11-26 08:13:46,0.10,0.09,0.00,22.16,26.70,29.84,4.80,26.51,1014.19,2034.12,3450.33,3303.82,3581.57,349.83,347.85,1.12,0000 0000 0000 0000 000000
2014-11-26 08:18:48,0.09,0.09,0.00,22.18,26.70,29.86,4.76,26.38,1014.19,2034.07,3448.80,3302.80,3580.48,349.87,347.81,1.15,0000 0000 0000 0000 000000
2014-11-26 08:23:49,0.11,0.10,0.00,22.17,26.72,29.89,4.83,26.40,1014.23,2034.04,3447.26,3301.76,3579.33,350.05,347.97,1.18,0000 0000 0000 0000 000000
2014-11-26 08:28:50,0.08,0.10,0.00,22.18,26.72,29.88,4.84,26.39,1014.50,2034.03,3445.89,3300.87,3578.24,350.54,348.53,1.21,0000 0000 0000 0000 000000
2014-11-26 08:33:51,0.13,0.10,0.00,22.20,26.73,29.88,4.83,26.41,1014.65,2034.02,3444.36,3299.74,3577.07,350.19,348.04,1.23,0000 0000 0000 0000 000000
2014-11-26 08:38:53,0.12,0.11,0.00,22.20,26.75,29.89,4.82,26.56,1014.65,2034.00,3442.54,3298.54,3575.88,349.36,347.35,1.26,0000 0000 0000 0000 000000
2014-11-26 08:43:54,0.10,0.11,0.00,22.21,26.75,29.91,4.80,26.33,1014.66,2034.01,3441.02,3297.63,3574.81,349.83,347.79,1.29,0000 0000 0000 0000 000000
2014-11-26 08:48:55,0.11,0.11,0.00,22.19,26.75,29.91,4.77,26.32,1014.66,2034.00,3439.64,3296.61,3573.71,349.64,347.68,1.32,0000 0000 0000 0000 000000
2014-11-26 08:53:56,0.08,0.12,0.00,22.21,26.77,29.93,4.85,26.33,1014.68,2034.00,3438.33,3295.77,3572.68,349.65,347.66,1.35,0000 0000 0000 0000 000000
2014-11-26 08:58:58,0.08,0.12,0.00,22.21,26.77,29.94,4.79,26.42,1014.72,2034.00,3436.99,3294.84,3571.77,350.50,348.59,1.38,0000 0000 0000 0000 000000
2014-11-26 09:03:59,0.10,0.12,0.00,22.21,26.78,29.97,4.84,26.38,1014.83,2034.00,3435.68,3293.90,3570.65,350.61,348.64,1.41,0000 0000 0000 0000 000000
2014-11-26 09:09:00,0.09,0.13,0.00,22.22,26.80,29.96,4.86,26.41,1014.98,2034.00,3434.43,3293.01,3569.65,350.04,348.05,1.44,0000 0000 0000 0000 000000
2014-11-26 09:14:01,0.08,0.13,0.00,22.22,26.80,29.97,4.79,26.43,1015.15,2033.99,3433.25,3292.13,3568.77,350.40,348.39,1.47,0000 0000 0000 0000 000000
2014-11-26 09:19:03,0.08,0.13,0.00,22.24,26.81,29.97,4.75,26.27,1015.10,2033.99,3432.05,3291.23,3568.00,349.74,347.86,1.50,0000 0000 0000 0000 000000
2014-11-26 09:24:04,0.09,0.13,0.00,22.25,26.82,29.97,4.76,26.38,1015.11,2033.99,3430.90,3290.57,3567.11,349.75,347.87,1.53,0000 0000 0000 0000 000000
2014-11-26 09:29:06,0.10,0.14,0.00,22.26,26.82,29.99,4.79,26.37,1015.14,2033.99,3429.58,3289.62,3566.06,349.74,348.00,1.56,0000 0000 0000 0000 000000
2014-11-26 09:34:07,0.08,0.14,0.00,22.24,26.83,29.99,4.75,26.32,1015.15,2033.98,3428.32,3288.78,3565.05,348.89,347.17,1.59,0000 0000 0000 0000 000000
2014-11-26 09:39:08,0.09,0.14,0.00,22.24,26.85,30.01,4.71,26.45,1015.15,2033.96,3427.06,3287.84,3564.05,349.63,347.68,1.62,0000 0000 0000 0000 000000
2014-11-26 09:44:10,0.09,0.15,0.00,22.26,26.85,30.02,4.78,26.39,1015.15,2033.97,3425.79,3287.02,3563.16,349.90,347.88,1.64,0000 0000 0000 0000 000000
2014-11-26 09:49:11,0.09,0.15,0.00,22.28,26.86,30.02,4.75,26.42,1015.16,2033.97,3424.58,3286.14,3562.21,350.08,348.16,1.67,0000 0000 0000 0000 000000
2014-11-26 09:54:12,0.10,0.15,0.00,22.28,26.87,30.00,4.85,26.35,1015.17,2033.98,3423.50,3285.32,3561.27,350.67,348.59,1.70,0000 0000 0000 0000 000000
2014-11-26 09:59:14,0.07,0.15,0.00,22.29,26.87,30.00,4.83,26.42,1015.28,2033.95,3422.23,3284.58,3560.46,350.19,348.27,1.73,0000 0000 0000 0000 000000
2014-11-26 10:04:15,0.08,0.16,0.00,22.31,26.88,30.04,4.79,26.47,1015.45,2033.94,3420.97,3283.73,3559.56,350.00,347.99,1.76,0000 0000 0000 0000 000000
2014-11-26 10:09:16,0.08,0.16,0.00,22.32,26.90,30.05,4.81,26.46,1015.33,2033.89,3419.83,3282.94,3558.51,349.88,348.13,1.79,0000 0000 0000 0000 000000
2014-11-26 10:14:17,0.04,0.16,0.00,22.30,26.90,30.04,4.76,26.27,1015.38,2033.73,3418.69,3282.08,3557.70,349.81,347.72,1.82,0000 0000 0000 0000 000000
2014-11-26 10:19:18,0.05,0.16,0.00,22.31,26.91,30.05,4.80,26.46,1015.53,2033.54,3417.62,3281.27,3556.74,350.20,348.17,1.85,0000 0000 0000 0000 000000
2014-11-26 10:24:19,0.08,0.16,0.00,22.34,26.92,30.05,4.81,26.39,1015.57,2033.41,3416.51,3280.56,3555.94,350.43,348.54,1.88,0000 0000 0000 0000 000000
2014-11-26 10:29:20,0.04,0.16,0.00,22.34,26.92,30.06,4.80,26.48,1015.57,2033.19,3415.39,3279.82,3555.06,349.75,347.82,1.91,0000 0000 0000 0000 000000
2014-11-26 10:34:22,0.07,0.17,0.00,22.33,26.94,30.06,4.83,26.34,1015.36,2033.18,3414.26,3279.02,3554.20,349.58,347.63,1.94,0000 0000 0000 0000 000000
2014-11-26 10:39:23,0.07,0.17,0.00,22.34,26.95,30.07,4.79,26.52,1015.48,2033.11,3413.15,3278.21,3553.38,349.78,347.52,1.97,0000 0000 0000 0000 000000
2014-11-26 10:44:24,0.09,0.17,0.00,22.36,26.95,30.09,4.80,26.43,1015.41,2033.07,3412.01,3277.38,3552.47,350.24,348.42,2.00,0000 0000 0000 0000 000000
2014-11-26 10:49:26,0.07,0.17,0.00,22.36,26.96,30.10,4.78,26.42,1015.20,2033.03,3410.89,3276.71,3551.71,349.91,347.68,2.03,0000 0000 0000 0000 000000
2014-11-26 10:54:27,0.06,0.18,0.00,22.38,26.97,30.09,4.81,26.39,1015.18,2033.03,3409.74,3275.95,3550.91,350.48,348.34,2.06,0000 0000 0000 0000 000000
2014-11-26 10:59:29,0.09,0.18,0.00,22.41,26.97,30.11,4.79,26.38,1015.17,2033.02,3408.59,3275.09,3549.98,349.76,347.65,2.08,0000 0000 0000 0000 000000
2014-11-26 11:04:30,0.09,0.18,0.00,22.40,26.99,30.11,4.73,26.38,1015.32,2033.01,3407.44,3274.27,3549.08,349.36,347.43,2.11,0000 0000 0000 0000 000000
2014-11-26 11:09:31,0.09,0.18,0.00,22.42,27.00,30.13,4.89,26.42,1015.37,2033.01,3406.30,3273.52,3548.16,350.10,348.17,2.14,0000 0000 0000 0000 000000
2014-11-26 11:14:32,0.06,0.19,0.00,22.42,27.00,30.12,4.83,26.44,1015.59,2033.01,3405.19,3272.87,3547.39,349.87,347.88,2.17,0000 0000 0000 0000 000000
2014-11-26 11:19:34,0.08,0.19,0.00,22.44,27.02,30.15,4.85,26.46,1015.63,2033.00,3404.08,3272.04,3546.40,349.90,347.91,2.20,0000 0000 0000 0000 000000
2014-11-26 11:24:35,0.09,0.19,0.00,22.46,27.02,30.15,4.87,26.39,1015.64,2033.00,3402.89,3271.19,3545.71,350.30,348.47,2.23,0000 0000 0000 0000 000000
2014-11-26 11:29:36,0.08,0.19,0.00,22.47,27.03,30.16,4.79,26.33,1015.65,2033.00,3401.82,3270.51,3544.90,349.81,347.93,2.26,0000 0000 0000 0000 000000
2014-11-26 11:34:37,0.08,0.20,0.00,22.50,27.05,30.18,4.85,26.44,1015.65,2033.00,3400.75,3269.74,3544.02,350.10,348.04,2.29,0000 0000 0000 0000 000000
2014-11-26 11:39:38,0.09,0.20,0.00,22.47,27.05,30.18,4.82,26.49,1015.68,2032.99,3399.44,3268.86,3543.13,350.12,348.12,2.32,0000 0000 0000 0000 000000
2014-11-26 11:44:39,0.07,0.20,0.00,22.47,27.06,30.19,4.81,26.47,1015.70,2032.99,3398.54,3268.09,3542.48,349.99,348.04,2.35,0000 0000 0000 0000 000000
2014-11-26 11:49:41,0.07,0.20,0.00,22.51,27.07,30.19,4.81,26.38,1015.75,2032.99,3397.46,3267.52,3541.80,349.92,348.10,2.38,0000 0000 0000 0000 000000
2014-11-26 11:54:42,0.05,0.20,0.00,22.53,27.07,30.21,4.78,26.52,1015.78,2032.99,3396.51,3266.92,3541.00,349.96,347.97,2.41,0000 0000 0000 0000 000000
2014-11-26 11:59:43,0.08,0.21,0.00,22.55,27.09,30.21,4.81,26.32,1015.72,2032.99,3395.48,3266.11,3540.19,349.89,347.83,2.44,0000 0000 0000 0000 000000
2014-11-26 12:04:44,0.09,0.21,0.00,22.55,27.10,30.24,4.84,26.42,1015.75,2032.99,3394.45,3265.40,3539.36,350.49,348.44,2.46,0000 0000 0000 0000 000000
2014-11-26 12:09:46,0.06,0.21,0.00,22.57,27.10,30.23,4.81,26.37,1016.03,2032.99,3393.46,3264.81,3538.58,349.94,348.06,2.49,0000 0000 0000 0000 000000
2014-11-26 12:14:47,0.07,0.21,0.00,22.57,27.12,30.21,4.75,26.33,1016.12,2032.99,3392.45,3264.02,3537.71,350.10,347.98,2.52,0000 0000 0000 0000 000000
2014-11-26 12:19:48,0.08,0.22,0.00,22.57,27.12,30.23,4.76,26.37,1016.13,2032.98,3391.37,3263.22,3536.93,349.56,347.43,2.55,0000 0000 0000 0000 000000
2014-11-26 12:24:49,0.06,0.22,0.00,22.61,27.14,30.26,4.76,26.38,1016.13,2032.96,3390.40,3262.74,3536.07,349.97,347.90,2.58,0000 0000 0000 0000 000000
2014-11-26 12:29:50,0.07,0.22,0.00,22.61,27.15,30.24,4.83,26.41,1016.14,2032.96,3389.47,3262.02,3535.27,350.66,348.40,2.61,0000 0000 0000 0000 000000
2014-11-26 12:34:52,0.07,0.22,0.00,22.63,27.16,30.25,4.76,26.34,1016.18,2032.92,3388.44,3261.22,3534.43,349.30,347.36,2.64,0000 0000 0000 0000 000000
2014-11-26 12:39:53,0.05,0.22,0.00,22.63,27.17,30.26,4.81,26.44,1016.40,2032.72,3387.27,3260.36,3533.56,350.61,348.67,2.67,0000 0000 0000 0000 000000
2014-11-26 12:44:54,0.08,0.23,0.00,22.64,27.18,30.27,4.75,26.37,1016.55,2032.77,3386.32,3259.84,3532.85,349.72,347.82,2.70,0000 0000 0000 0000 000000
2014-11-26 12:49:55,0.05,0.23,0.00,22.68,27.20,30.28,4.83,26.34,1016.62,2032.53,3385.14,3258.94,3531.92,350.24,348.34,2.73,0000 0000 0000 0000 000000
2014-11-26 12:54:56,0.06,0.23,0.00,22.69,27.20,30.28,4.85,26.46,1016.57,2032.27,3383.95,3258.07,3531.05,349.81,347.87,2.76,0000 0000 0000 0000 000000
2014-11-26 12:59:58,0.09,0.23,0.00,22.70,27.22,30.29,4.77,26.43,1016.60,2032.21,3382.64,3257.20,3530.22,349.92,347.97,2.79,0000 0000 0000 0000 000000
2014-11-26 13:04:59,0.07,0.23,0.00,22.72,27.22,30.30,4.84,26.46,1016.60,2032.11,3381.46,3256.36,3529.22,350.08,348.12,2.82,0000 0000 0000 0000 000000